{"data":{"norad_id":54846,"intl_designator":"2022-177AC","name":"STARLINK-5360","alt_names":[],"object_type":"PAYLOAD","status":"ACTIVE","operator":null,"country":"US","launch_date":"2022-12-28","launch_site_code":"AFETR","launch_vehicle":null,"mission":null,"orbit_class":"UNKNOWN","rcs_meters":null,"size_class":null,"mass_kg":null,"dimensions":null,"purposes":["comms"],"wikipedia_slug":null,"has_3d_model":false,"image_url":null,"decayed_at":null,"tle_current":{"epoch":"2026-05-25T04:37:26.361408Z","epoch_age_seconds":57710,"freshness":"FRESH","line1":"1 54846U 22177AC  26145.19266622 -.00000187  00000+0  27190-5 0  9998","line2":"2 54846  43.0033  60.5830 0000819 235.9413 124.1361 15.27577361188660","mean_motion":15.27577361,"eccentricity":8.19e-5,"inclination_deg":43.0033,"raan_deg":60.583,"arg_perigee_deg":235.9413,"mean_anomaly_deg":124.1361,"bstar":2.719e-6,"rev_number":18866,"period_min":94.266911566255,"perigee_km":482.49506637795,"apogee_km":483.61892995485,"semimajor_km":6861.1939981664,"source":"CELESTRAK","updated_at":"2026-05-25T13:38:17.724842Z"}}}